This demonstration page uses our WeatherBlox Daily Observations layout. Learn more.

39.01783, -85.05884

Hourly Observations for February 10, 2020

Temp ( °F °C ) Dew Point ( °F °C ) Humidity (%) Winds ( mph kmh ) Pressure ( in mb ) Visibility ( mi km ) Precip ( " mm )
12:52 am 00:52 Cloudy 47 8.3 40 4.4 77 77 SSW 18 30 30 1016 10 16.0934 0.001 0.001
1:52 am 01:52 Cloudy with Light Rain 49 9.4 40 4.4 71 71 SSW 17 28 29.99 1016 10 16.0934 0.001 0.001
2:52 am 02:52 Cloudy with Light Rain 48 8.9 41 5 77 77 SSW 15 24 29.98 1015 10 16.0934 0.001 0.001
3:52 am 03:52 Cloudy 48 8.9 42 5.6 80 80 SW 16 26 30 1016 10 16.0934 0.001 0.001
4:08 am 04:08 Cloudy 48 8.9 43 6.1 83 83 SW 15 24 30.02 1017 10 16.0934 0 0
4:52 am 04:52 Cloudy 48 8.9 43 6.1 83 83 SSW 18 30 29.99 1016 10 16.0934 0.01 0.254
5:17 am 05:17 Cloudy 48 8.9 43 6.1 83 83 SSW 16 26 30 1016 10 16.0934 0 0
5:33 am 05:33 Cloudy 48 8.9 43 6.1 83 83 SSW 15 24 29.99 1016 10 16.0934 0 0
5:52 am 05:52 Cloudy 48 8.9 43 6.1 83 83 SSW 16 26 29.98 1015 10 16.0934 0 0
6:21 am 06:21 Cloudy 48 8.9 44 6.7 86 86 SW 17 28 30 1016 10 16.0934 0 0
6:52 am 06:52 Cloudy 48 8.9 44 6.7 86 86 SSW 15 24 30 1016 10 16.0934 0.001 0.001
6:59 am 06:59 Cloudy with Light Rain 48 8.9 44 6.7 86 86 SSW 16 26 30.01 1016 9 14.48406 0.001 0.001
7:44 am 07:44 Cloudy 48 8.9 44 6.7 86 86 SSW 13 20 30.02 1017 10 16.0934 0.001 0.001
7:52 am 07:52 Cloudy 48 8.9 45 7.2 89 89 SSW 13 20 30.01 1016 10 16.0934 0.001 0.001
8:35 am 08:35 Cloudy with Mist and Fog 48 8.9 45 7.2 89 89 SW 9 15 30.04 1017 3 4.82802 0.01 0.254
8:52 am 08:52 Cloudy with Light Rain 48 8.9 45 7.2 89 89 SW 8 13 30.04 1017 2 3.21868 0.01 0.254
9:35 am 09:35 Cloudy with Light Rain 48 8.9 46 7.8 93 93 WSW 6 9 30.06 1018 1 1.60934 0.01 0.254
9:43 am 09:43 Cloudy with Light Rain 48 8.9 46 7.8 93 93 SW 6 9 30.06 1018 1 1.60934 0.02 0.508
9:52 am 09:52 Cloudy with Light Rain 48 8.9 46 7.8 93 93 SW 5 7 30.06 1018 1 1.60934 0.02 0.508
10:13 am 10:13 Cloudy with Light Rain 44 6.7 42 5.6 93 93 NW 12 19 30.09 1019 0.25 0.402335 0.01 0.254
10:52 am 10:52 Cloudy with Light Rain 42 5.6 40 4.4 92 92 NNW 12 19 30.08 1019 0.25 0.402335 0.03 0.762
11:52 am 11:52 Cloudy with Light Rain 42 5.6 40 4.4 92 92 N 8 13 30.07 1018 0.25 0.402335 0.01 0.254
11:58 am 11:58 Cloudy with Light Rain 42 5.6 40 4.4 92 92 N 7 11 30.09 1019 1.5 2.41401 0.001 0.001
12:52 pm 12:52 Cloudy with Light Rain 42 5.6 40 4.4 92 92 N 8 13 30.05 1018 1.5 2.41401 0.01 0.254
1:44 pm 13:44 Cloudy with Mist and Fog 42 5.6 40 4.4 92 92 N 8 13 30.06 1018 1 1.60934 0.001 0.001
1:52 pm 13:52 Cloudy with Light Rain 42 5.6 39 3.9 89 89 N 8 13 30.03 1017 1 1.60934 0.001 0.001
2:52 pm 14:52 Cloudy with Drizzle 41 5 39 3.9 93 93 N 9 15 30.02 1017 1 1.60934 0.001 0.001
3:33 pm 15:33 Cloudy with Drizzle 41 5 39 3.9 93 93 N 7 11 30.05 1018 0.5 0.80467 0.01 0.254
3:52 pm 15:52 Cloudy with Drizzle 41 5 39 3.9 93 93 N 12 19 30.02 1017 0.5 0.80467 0.01 0.254
4:52 pm 16:52 Cloudy with Mist and Fog 40 4.4 38 3.3 93 93 N 10 17 30.03 1017 0.5 0.80467 0.001 0.001
5:52 pm 17:52 Cloudy with Light Rain 39 3.9 37 2.8 93 93 NNE 12 19 30.04 1017 0.5 0.80467 0.001 0.001
6:52 pm 18:52 Cloudy with Light Rain 39 3.9 37 2.8 93 93 N 7 11 30.06 1018 0.75 1.207005 0.001 0.001
7:21 pm 19:21 Cloudy with Drizzle 38 3.3 37 2.8 97 97 N 9 15 30.1 1019 1.5 2.41401 0.001 0.001
7:52 pm 19:52 Cloudy with Drizzle 38 3.3 36 2.2 93 93 N 12 19 30.07 1018 1.5 2.41401 0.001 0.001
8:52 pm 20:52 Cloudy with Mist and Fog 38 3.3 36 2.2 93 93 N 10 17 30.06 1018 1.5 2.41401 0.001 0.001
9:16 pm 21:16 Cloudy with Drizzle 37 2.8 36 2.2 96 96 N 10 17 30.1 1019 0.75 1.207005 0.001 0.001
9:52 pm 21:52 Cloudy with Drizzle 37 2.8 35 1.7 93 93 N 10 17 30.08 1019 0.75 1.207005 0.001 0.001
10:52 pm 22:52 Cloudy with Mist and Fog 36 2.2 35 1.7 97 97 N 12 19 30.08 1019 0.75 1.207005 0.001 0.001
11:52 pm 23:52 Cloudy with Mist and Fog 36 2.2 34 1.1 93 93 N 12 19 30.06 1018 0.75 1.207005 0 0

Powered by AerisWeather